RYR3PM EPMO-LIRN

Flight info

Callsign RYR3PM
Flight time 1h 53m
Altitude 36000
Route EVINA M66 BABKO DCT VEBAL DCT ZINPE DCT TEBLI DCT XAMIT DCT SUXUB DCT ERIKA
Aircraft B738/M-SDE3FGILRWY/SB1

Departure

Time 2026-05-04 10:23
Airport Warsaw Modlin Airport (EPMO)

Arrival

Time 2026-05-04 12:16
Airport Naples International Airport (LIRN)
Time Latitude Longitude Altitude Speed Heading
2026-05-04 10:00 52.44751 20.65337 333 ft 0 kts 206°
2026-05-04 10:14 52.44765 20.65351 332 ft 4 kts 221°
2026-05-04 10:16 52.44797 20.65317 332 ft 0 kts 81°
2026-05-04 10:17 52.44797 20.65319 332 ft 1 kts 81°
2026-05-04 10:17 52.44800 20.65351 333 ft 5 kts 81°
2026-05-04 10:19 52.44884 20.66270 336 ft 15 kts 81°
2026-05-04 10:19 52.44900 20.66440 337 ft 15 kts 81°
2026-05-04 10:19 52.44916 20.66610 337 ft 15 kts 81°
2026-05-04 10:19 52.44931 20.66774 337 ft 14 kts 82°
2026-05-04 10:20 52.44946 20.66931 337 ft 14 kts 81°
2026-05-04 10:20 52.44977 20.67069 335 ft 13 kts 31°
2026-05-04 10:20 52.45066 20.67065 334 ft 13 kts 351°
2026-05-04 10:20 52.45152 20.67043 336 ft 12 kts 351°
2026-05-04 10:21 52.45235 20.67007 335 ft 12 kts 342°
2026-05-04 10:21 52.45282 20.66913 335 ft 9 kts 270°
2026-05-04 10:21 52.45281 20.66888 335 ft 1 kts 265°
2026-05-04 10:21 52.45280 20.66881 335 ft 0 kts 260°
2026-05-04 10:22 52.45264 20.66721 332 ft 47 kts 261°
2026-05-04 10:22 52.45178 20.65785 337 ft 117 kts 261°
2026-05-04 10:22 52.45028 20.64162 469 ft 162 kts 261°
2026-05-04 10:23 52.44870 20.62311 1245 ft 163 kts 261°
2026-05-04 10:23 52.44787 20.60496 2246 ft 159 kts 262°
2026-05-04 10:25 52.42059 20.47099 6381 ft 259 kts 196°
2026-05-04 10:25 52.40272 20.46505 7175 ft 266 kts 194°
2026-05-04 10:25 52.38426 20.45927 7994 ft 272 kts 194°
2026-05-04 10:25 52.36567 20.45320 8940 ft 273 kts 195°
2026-05-04 10:26 52.34691 20.44678 9774 ft 278 kts 195°
2026-05-04 10:26 52.32770 20.43996 10390 ft 291 kts 195°
2026-05-04 10:26 52.30707 20.43244 10617 ft 316 kts 195°
2026-05-04 10:26 52.28513 20.42436 11164 ft 328 kts 195°
2026-05-04 10:27 52.26276 20.41611 12020 ft 330 kts 195°
2026-05-04 10:27 52.24025 20.40772 12878 ft 334 kts 196°
2026-05-04 10:27 52.21751 20.39913 13670 ft 338 kts 195°
2026-05-04 10:27 52.19441 20.39042 14406 ft 343 kts 195°
2026-05-04 10:28 52.17106 20.38167 15144 ft 345 kts 195°
2026-05-04 10:28 52.14753 20.37285 15872 ft 349 kts 195°
2026-05-04 10:28 52.12376 20.36390 16556 ft 353 kts 195°
2026-05-04 10:28 52.09964 20.35482 17263 ft 358 kts 195°
2026-05-04 10:29 52.07527 20.34566 17966 ft 361 kts 195°
2026-05-04 10:29 52.05065 20.33644 18609 ft 365 kts 195°
2026-05-04 10:29 52.02580 20.32711 19170 ft 370 kts 195°
2026-05-04 10:29 52.00059 20.31765 19770 ft 373 kts 195°
2026-05-04 10:30 51.97551 20.30826 20361 ft 377 kts 195°
2026-05-04 10:30 51.94982 20.29865 20924 ft 381 kts 195°
2026-05-04 10:30 51.92346 20.28880 21460 ft 386 kts 195°
2026-05-04 10:30 51.89752 20.27912 22015 ft 390 kts 195°
2026-05-04 10:31 51.87094 20.26921 22582 ft 393 kts 195°
2026-05-04 10:31 51.84416 20.25925 23129 ft 397 kts 195°
2026-05-04 10:32 51.67866 20.19795 25829 ft 416 kts 195°
2026-05-04 10:33 51.65031 20.18749 26247 ft 419 kts 195°
2026-05-04 10:33 51.62183 20.17699 26654 ft 422 kts 194°
2026-05-04 10:33 51.59303 20.16640 27028 ft 426 kts 195°
2026-05-04 10:33 51.56405 20.15575 27390 ft 429 kts 194°
2026-05-04 10:34 51.53477 20.14503 27763 ft 433 kts 194°
2026-05-04 10:34 51.50529 20.13422 28129 ft 436 kts 194°
2026-05-04 10:34 51.47567 20.12338 28475 ft 439 kts 194°
2026-05-04 10:34 51.44571 20.11243 28828 ft 442 kts 194°
2026-05-04 10:35 51.41567 20.10147 29189 ft 445 kts 194°
2026-05-04 10:35 51.38540 20.09043 29516 ft 448 kts 194°
2026-05-04 10:35 51.35484 20.07932 29829 ft 451 kts 194°
2026-05-04 10:35 51.32409 20.06815 30098 ft 455 kts 194°
2026-05-04 10:36 51.29319 20.05692 30483 ft 454 kts 194°
2026-05-04 10:36 51.26243 20.04578 30980 ft 452 kts 194°
2026-05-04 10:36 51.23221 20.03484 31298 ft 453 kts 194°
2026-05-04 10:36 51.20142 20.02372 31591 ft 454 kts 194°
2026-05-04 10:37 51.17057 20.01259 31978 ft 453 kts 194°
2026-05-04 10:37 51.13993 20.00155 32429 ft 451 kts 194°
2026-05-04 10:37 51.10931 19.99052 32807 ft 451 kts 193°
2026-05-04 10:37 51.07873 19.97952 33145 ft 451 kts 194°
2026-05-04 10:39 50.89577 19.91406 35061 ft 448 kts 193°
2026-05-04 10:39 50.86541 19.90325 35342 ft 447 kts 194°
2026-05-04 10:39 50.83509 19.89246 35625 ft 447 kts 193°
2026-05-04 10:40 50.80482 19.88171 35899 ft 446 kts 193°
2026-05-04 10:40 50.77450 19.87096 36032 ft 448 kts 193°
2026-05-04 10:40 50.74393 19.86012 36031 ft 453 kts 193°
2026-05-04 10:41 50.68184 19.83817 36051 ft 462 kts 193°
2026-05-04 10:41 50.61850 19.81583 36052 ft 470 kts 193°
2026-05-04 10:42 50.55417 19.79322 36044 ft 475 kts 193°
2026-05-04 10:42 50.48951 19.77055 36034 ft 477 kts 193°
2026-05-04 10:43 50.42512 19.74804 36034 ft 477 kts 193°
2026-05-04 10:45 50.16988 19.65942 36050 ft 476 kts 193°
2026-05-04 10:45 50.10522 19.63712 36049 ft 476 kts 193°
2026-05-04 10:46 50.04055 19.61488 36045 ft 476 kts 193°
2026-05-04 10:46 49.97590 19.59270 36048 ft 476 kts 193°
2026-05-04 10:47 49.91127 19.57060 36054 ft 476 kts 193°
2026-05-04 10:47 49.84659 19.54854 36054 ft 476 kts 193°
2026-05-04 10:49 49.58831 19.45654 36057 ft 475 kts 204°
2026-05-04 10:50 49.52939 19.41221 36080 ft 475 kts 208°
2026-05-04 10:52 49.28404 19.25865 36086 ft 477 kts 203°
2026-05-04 10:52 49.22286 19.21956 36086 ft 477 kts 204°
2026-05-04 10:54 48.97727 19.06391 36095 ft 478 kts 203°
2026-05-04 10:56 48.73100 18.90972 36111 ft 479 kts 203°
2026-05-04 10:57 48.66933 18.87136 36110 ft 479 kts 203°
2026-05-04 10:57 48.60764 18.83310 36100 ft 480 kts 203°
2026-05-04 10:58 48.54574 18.79480 36099 ft 480 kts 203°
2026-05-04 10:58 48.48392 18.75665 36100 ft 481 kts 203°
2026-05-04 10:59 48.42199 18.71854 36103 ft 481 kts 203°
2026-05-04 10:59 48.35997 18.68047 36093 ft 481 kts 203°
2026-05-04 11:00 48.29795 18.64251 36096 ft 481 kts 203°
2026-05-04 11:02 48.04934 18.49131 36091 ft 483 kts 202°
2026-05-04 11:05 47.58233 18.21152 36089 ft 482 kts 202°
2026-05-04 11:06 47.52052 18.17489 36090 ft 482 kts 202°
2026-05-04 11:06 47.45826 18.13809 36089 ft 482 kts 202°
2026-05-04 11:10 47.02226 17.88299 36110 ft 481 kts 202°
2026-05-04 11:12 46.77315 17.73924 36113 ft 481 kts 202°
2026-05-04 11:12 46.72136 17.70954 36114 ft 481 kts 202°
2026-05-04 11:13 46.65903 17.67387 36111 ft 481 kts 202°
2026-05-04 11:13 46.59670 17.63829 36111 ft 481 kts 202°
2026-05-04 11:14 46.53424 17.60272 36106 ft 482 kts 202°
2026-05-04 11:16 46.28457 17.46143 36115 ft 482 kts 202°
2026-05-04 11:16 46.22211 17.42629 36103 ft 482 kts 202°
2026-05-04 11:17 46.15957 17.39120 36103 ft 482 kts 202°
2026-05-04 11:19 45.91112 17.24861 36104 ft 481 kts 205°
2026-05-04 11:19 45.84994 17.20984 36106 ft 481 kts 205°
2026-05-04 11:20 45.78846 17.17183 36104 ft 481 kts 204°
2026-05-04 11:20 45.72737 17.13269 36110 ft 480 kts 208°
2026-05-04 11:22 45.53288 16.96000 36099 ft 465 kts 214°
2026-05-04 11:22 45.50524 16.93597 36099 ft 465 kts 213°
2026-05-04 11:23 45.44982 16.88836 36109 ft 466 kts 213°
2026-05-04 11:25 45.25519 16.72144 36099 ft 467 kts 213°
2026-05-04 11:25 45.19956 16.67373 36087 ft 468 kts 215°
2026-05-04 11:27 44.96332 16.43030 36085 ft 467 kts 218°
2026-05-04 11:28 44.91105 16.37691 36087 ft 467 kts 219°
2026-05-04 11:28 44.85839 16.32322 36084 ft 467 kts 219°
2026-05-04 11:29 44.80580 16.26970 36089 ft 466 kts 219°
2026-05-04 11:29 44.75318 16.21626 36095 ft 466 kts 219°
2026-05-04 11:33 44.38596 15.84663 36123 ft 462 kts 219°
2026-05-04 11:33 44.33370 15.79450 36117 ft 461 kts 219°
2026-05-04 11:34 44.28148 15.74252 36133 ft 461 kts 219°
2026-05-04 11:34 44.22927 15.69068 36135 ft 461 kts 219°
2026-05-04 11:35 44.17707 15.63895 36144 ft 460 kts 219°
2026-05-04 11:35 44.12522 15.58769 36146 ft 460 kts 219°
2026-05-04 11:36 44.07314 15.53631 36155 ft 459 kts 218°
2026-05-04 11:36 44.02105 15.48504 36157 ft 458 kts 218°
2026-05-04 11:37 43.96898 15.43390 36154 ft 458 kts 218°
2026-05-04 11:37 43.91691 15.38287 36151 ft 458 kts 218°
2026-05-04 11:38 43.86486 15.33197 36144 ft 458 kts 218°
2026-05-04 11:38 43.81286 15.28123 36146 ft 457 kts 218°
2026-05-04 11:39 43.76084 15.23058 36141 ft 457 kts 218°
2026-05-04 11:41 43.57927 15.05465 36135 ft 456 kts 218°
2026-05-04 11:41 43.52736 15.00459 36133 ft 455 kts 218°
2026-05-04 11:42 43.47541 14.95460 36134 ft 455 kts 218°
2026-05-04 11:42 43.42356 14.90481 36127 ft 455 kts 218°
2026-05-04 11:43 43.37205 14.85543 36133 ft 454 kts 217°
2026-05-04 11:43 43.32011 14.80612 36130 ft 454 kts 216°
2026-05-04 11:44 43.26416 14.76539 36141 ft 457 kts 205°
2026-05-04 11:44 43.20399 14.73613 36122 ft 459 kts 200°
2026-05-04 11:45 43.14313 14.70955 36135 ft 459 kts 201°
2026-05-04 11:45 43.08296 14.68080 36124 ft 458 kts 203°
2026-05-04 11:46 43.02331 14.65062 36128 ft 457 kts 203°
2026-05-04 11:46 42.96372 14.62009 36122 ft 457 kts 203°
2026-05-04 11:47 42.90426 14.58975 36123 ft 456 kts 203°
2026-05-04 11:47 42.84474 14.55956 36119 ft 456 kts 203°
2026-05-04 11:48 42.78565 14.52968 36098 ft 456 kts 203°
2026-05-04 11:48 42.75537 14.51438 35816 ft 460 kts 203°
2026-05-04 11:48 42.72581 14.49946 35573 ft 457 kts 203°
2026-05-04 11:48 42.69599 14.48444 35321 ft 457 kts 203°
2026-05-04 11:49 42.66611 14.46939 35083 ft 459 kts 203°
2026-05-04 11:49 42.63617 14.45433 34841 ft 460 kts 203°
2026-05-04 11:49 42.60615 14.43924 34600 ft 461 kts 202°
2026-05-04 11:49 42.57603 14.42411 34364 ft 462 kts 202°
2026-05-04 11:50 42.54586 14.40899 34124 ft 463 kts 202°
2026-05-04 11:50 42.51556 14.39381 33858 ft 464 kts 202°
2026-05-04 11:50 42.48516 14.37860 33580 ft 465 kts 202°
2026-05-04 11:50 42.45481 14.36344 33286 ft 467 kts 202°
2026-05-04 11:51 42.42425 14.34818 32871 ft 468 kts 202°
2026-05-04 11:51 42.39378 14.33298 32435 ft 469 kts 202°
2026-05-04 11:51 42.36309 14.31770 31990 ft 470 kts 202°
2026-05-04 11:51 42.33235 14.30240 31550 ft 471 kts 202°
2026-05-04 11:52 42.30158 14.28710 31105 ft 472 kts 202°
2026-05-04 11:52 42.27073 14.27176 30666 ft 472 kts 202°
2026-05-04 11:52 42.23994 14.25648 30219 ft 473 kts 202°
2026-05-04 11:52 42.20903 14.24117 29713 ft 473 kts 202°
2026-05-04 11:53 42.17812 14.22587 29189 ft 473 kts 202°
2026-05-04 11:53 42.14718 14.21057 28737 ft 473 kts 202°
2026-05-04 11:53 42.11625 14.19528 28240 ft 473 kts 202°
2026-05-04 11:53 42.08539 14.18005 27790 ft 474 kts 202°
2026-05-04 11:55 41.86557 14.07406 24417 ft 473 kts 197°
2026-05-04 11:55 41.83303 14.06756 23935 ft 475 kts 186°
2026-05-04 11:56 41.79999 14.06601 23366 ft 475 kts 184°
2026-05-04 11:56 41.76721 14.06308 22812 ft 468 kts 190°
2026-05-04 11:56 41.73565 14.05525 22389 ft 454 kts 194°
2026-05-04 11:56 41.70522 14.04642 21923 ft 441 kts 194°
2026-05-04 11:57 41.67548 14.03830 21492 ft 433 kts 192°
2026-05-04 11:57 41.64565 14.03437 21027 ft 432 kts 177°
2026-05-04 11:57 41.61685 14.04481 20684 ft 431 kts 154°
2026-05-04 11:57 41.59344 14.06889 20340 ft 423 kts 133°
2026-05-04 11:58 41.57529 14.09940 19957 ft 418 kts 128°
2026-05-04 11:58 41.55736 14.12987 19541 ft 416 kts 131°
2026-05-04 11:58 41.53804 14.15835 19139 ft 414 kts 135°
2026-05-04 11:58 41.51801 14.18584 18717 ft 412 kts 136°
2026-05-04 11:59 41.49810 14.21313 18296 ft 408 kts 135°
2026-05-04 11:59 41.47867 14.24039 17826 ft 402 kts 134°
2026-05-04 11:59 41.45976 14.26749 17409 ft 397 kts 134°
2026-05-04 11:59 41.44098 14.29466 17158 ft 399 kts 134°
2026-05-04 12:00 41.42217 14.32175 17146 ft 398 kts 135°
2026-05-04 12:00 41.40237 14.34757 16819 ft 401 kts 140°
2026-05-04 12:00 41.38109 14.37137 16346 ft 396 kts 142°
2026-05-04 12:00 41.35992 14.39453 15927 ft 390 kts 141°
2026-05-04 12:01 41.33935 14.41773 15552 ft 387 kts 141°
2026-05-04 12:01 41.31821 14.43962 15128 ft 384 kts 146°
2026-05-04 12:02 41.19501 14.40838 13041 ft 343 kts 233°
2026-05-04 12:03 41.17760 14.38714 12576 ft 341 kts 207°
2026-05-04 12:03 41.15493 14.38007 12337 ft 338 kts 178°
2026-05-04 12:03 41.13251 14.38828 12014 ft 339 kts 150°
2026-05-04 12:03 41.11329 14.40613 11680 ft 339 kts 137°
2026-05-04 12:04 41.09811 14.44162 11221 ft 336 kts 103°
2026-05-04 12:04 41.09642 14.46221 11075 ft 330 kts 89°
2026-05-04 12:04 41.09986 14.49178 10869 ft 322 kts 71°
2026-05-04 12:04 41.10989 14.51787 10679 ft 314 kts 57°
2026-05-04 12:05 41.12197 14.54161 10482 ft 308 kts 55°
2026-05-04 12:05 41.13377 14.56503 10295 ft 302 kts 57°
2026-05-04 12:05 41.14482 14.58852 10106 ft 298 kts 58°
2026-05-04 12:05 41.15530 14.61166 9897 ft 295 kts 59°
2026-05-04 12:06 41.16595 14.63513 9703 ft 289 kts 58°
2026-05-04 12:06 41.17617 14.65742 9546 ft 283 kts 58°
2026-05-04 12:06 41.18633 14.67943 9353 ft 277 kts 58°
2026-05-04 12:06 41.19627 14.70104 9192 ft 271 kts 61°
2026-05-04 12:07 41.20123 14.72470 9026 ft 266 kts 90°
2026-05-04 12:07 41.19747 14.74838 8880 ft 263 kts 116°
2026-05-04 12:07 41.18656 14.76764 8740 ft 263 kts 140°
2026-05-04 12:07 41.17139 14.78115 8579 ft 263 kts 150°
2026-05-04 12:08 41.15496 14.79237 8263 ft 268 kts 162°
2026-05-04 12:08 41.13680 14.79457 8066 ft 262 kts 191°
2026-05-04 12:08 41.12049 14.78492 7917 ft 256 kts 219°
2026-05-04 12:08 41.10871 14.76750 7762 ft 255 kts 236°
2026-05-04 12:09 41.09935 14.74751 7615 ft 255 kts 239°
2026-05-04 12:09 41.09030 14.72728 7461 ft 256 kts 239°
2026-05-04 12:09 41.08107 14.70708 7302 ft 256 kts 239°
2026-05-04 12:09 41.07173 14.68694 7143 ft 257 kts 238°
2026-05-04 12:10 41.06232 14.66679 6980 ft 258 kts 238°
2026-05-04 12:10 41.05275 14.64631 6632 ft 263 kts 238°
2026-05-04 12:10 41.04310 14.62561 6278 ft 266 kts 238°
2026-05-04 12:10 41.03337 14.60471 5910 ft 268 kts 239°
2026-05-04 12:11 41.02382 14.58360 5598 ft 268 kts 239°
2026-05-04 12:11 41.01413 14.56259 5265 ft 266 kts 238°
2026-05-04 12:11 41.00437 14.54186 4871 ft 263 kts 238°
2026-05-04 12:11 40.99481 14.52168 4471 ft 255 kts 238°
2026-05-04 12:12 40.98554 14.50218 4133 ft 246 kts 237°
2026-05-04 12:12 40.97658 14.48323 3752 ft 236 kts 239°
2026-05-04 12:12 40.96810 14.46515 3420 ft 226 kts 239°
2026-05-04 12:12 40.95988 14.44766 3056 ft 221 kts 239°
2026-05-04 12:13 40.95205 14.43104 2759 ft 205 kts 239°
2026-05-04 12:14 40.91155 14.34502 1099 ft 137 kts 237°
2026-05-04 12:15 40.90657 14.33440 888 ft 137 kts 236°
2026-05-04 12:15 40.90160 14.32381 665 ft 135 kts 234°
2026-05-04 12:15 40.89665 14.31341 482 ft 136 kts 237°
2026-05-04 12:15 40.89192 14.30324 293 ft 133 kts 238°
2026-05-04 12:16 40.88734 14.29352 259 ft 103 kts 237°
2026-05-04 12:16 40.88446 14.28745 274 ft 32 kts 238°
2026-05-04 12:16 40.88360 14.28570 278 ft 21 kts 230°
2026-05-04 12:16 40.88261 14.28452 283 ft 15 kts 216°
2026-05-04 12:17 40.88192 14.28397 287 ft 8 kts 208°
2026-05-04 12:17 40.88143 14.28362 285 ft 8 kts 208°
2026-05-04 12:17 40.88096 14.28328 286 ft 8 kts 208°
2026-05-04 12:17 40.88061 14.28346 288 ft 8 kts 104°
2026-05-04 12:18 40.88053 14.28431 285 ft 11 kts 97°
2026-05-04 12:18 40.88027 14.28528 284 ft 12 kts 157°
2026-05-04 12:18 40.87959 14.28483 286 ft 11 kts 215°
2026-05-04 12:18 40.87939 14.28408 287 ft 7 kts 274°
2026-05-04 12:19 40.87935 14.28349 288 ft 6 kts 234°
2026-05-04 12:19 40.87898 14.28346 294 ft 5 kts 185°
2026-05-04 12:19 40.87878 14.28343 292 ft 0 kts 187°